JH1LWU-13 Weather Reports


Display with metric or nautical units.
time (UTC)temp
F
wind
direction
speed
MPH
gust
MPH
rain 1hr
in
rain 24hr
in
rain mn
in
humidity
%
barometer
mb
20260508153721 67 305 0.0 2.0 0.00 0.00 0.00 60 999.0
20260508150720 69 300 0.0 0.0 0.00 0.00 0.00 53 999.0
20260508143719 70 284 0.0 2.0 0.00 0.00 0.00 54 999.0
20260508140718 70 259 2.0 4.0 0.00 0.00 0.00 55 998.0
20260508133717 70 354 3.0 3.0 0.00 0.00 0.00 54 999.0
20260508130716 70 304 1.0 4.0 0.00 0.00 0.00 53 996.0
20260508123715 70 56 2.0 4.0 0.00 0.00 0.00 55 998.0
20260508120714 70 44 4.0 4.0 0.00 0.00 0.00 58 998.0
20260508113713 69 350 3.0 5.0 0.00 0.00 0.00 64 998.0
20260508110712 70 215 3.0 5.0 0.00 0.00 0.00 65 996.0
20260508103711 70 132 4.0 5.0 0.00 0.00 0.00 64 996.0
20260508100710 69 141 4.0 5.0 0.00 0.00 0.00 66 998.0
20260508093709 70 158 4.0 7.0 0.00 0.00 0.00 63 998.0
20260508090708 69 249 3.0 3.0 0.00 0.00 0.00 67 998.0
20260508083707 69 248 2.0 5.0 0.00 0.00 0.00 68 998.0
20260508080706 69 205 3.0 6.0 0.00 0.00 0.00 66 997.0
20260508073705 70 335 1.0 8.0 0.00 0.00 0.00 63 999.0
20260508070704 72 11 3.0 4.0 0.00 0.00 0.00 65 998.0
20260508063703 73 135 2.0 5.0 0.00 0.00 0.00 65 1000.0
20260508060702 73 131 2.0 4.0 0.00 0.00 0.00 65 997.0
20260508053701 72 197 2.0 5.0 0.00 0.00 0.00 65 1000.0
20260508050700 73 51 4.0 5.0 0.00 0.00 0.00 65 1000.0
20260508043659 73 125 2.0 4.0 0.00 0.00 0.00 65 1000.0
20260508040658 74 316 2.0 4.0 0.00 0.00 0.00 64 1000.0
20260508033657 73 93 5.0 5.0 0.00 0.00 0.00 64 1001.0
20260508030656 74 55 0.0 7.0 0.00 0.00 0.00 64 1001.0
20260508023655 75 278 1.0 5.0 0.00 0.00 0.00 61 1003.0
20260508020654 76 11 2.0 5.0 0.00 0.00 0.00 58 1002.0
20260508013653 76 63 3.0 3.0 0.00 0.00 0.00 55 1002.0
20260508010652 77 277 0.0 0.0 0.00 0.00 0.00 54 1003.0
20260508003651 77 129 0.0 3.0 0.00 0.00 0.00 53 1003.0
20260508000650 76 181 0.0 2.0 0.00 0.00 0.00 56 1003.0
20260507233649 73 295 2.0 8.0 0.00 0.00 0.00 61 1003.0
20260507230648 73 13 0.0 2.0 0.00 0.00 0.00 60 1003.0
20260507223647 72 231 0.0 1.0 0.00 0.00 0.00 64 1003.0
20260507220646 71 276 3.0 4.0 0.00 0.00 0.00 66 1005.0
20260507213645 69 193 1.0 3.0 0.00 0.00 0.00 71 1005.0
20260507210644 66 298 0.0 1.0 0.00 0.00 0.00 75 1005.0
20260507203643 65 201 0.0 3.0 0.00 0.00 0.00 77 1004.0
20260507200642 64 235 1.0 3.0 0.00 0.00 0.00 78 1004.0
20260507193641 64 186 2.0 2.0 0.00 0.00 0.00 77 1004.0
20260507190640 64 325 0.0 1.0 0.00 0.00 0.00 77 1003.0
20260507183639 64 48 0.0 0.0 0.00 0.00 0.00 76 1003.0
20260507180638 64 280 0.0 3.0 0.00 0.00 0.00 77 1004.0
20260507173637 64 280 0.0 1.0 0.00 0.00 0.00 77 1006.0
20260507170636 64 298 1.0 1.0 0.00 0.00 0.00 77 1004.0
20260507163635 65 31 0.0 5.0 0.00 0.00 0.00 76 1003.0
20260507160634 65 165 1.0 1.0 0.00 0.00 0.00 75 1004.0